www.pogodaiklimat.ru

Погода и климат >> Архив погоды >> Россия >> Архангельская область >> Кепино


ПОГОДА в Кепино

  • Прогноз погоды в Кепино
  • Монитор погоды в Кепино

АРХИВ ПОГОДЫ в Кепино

Время (UTC), дата Ветер
(напр.,м/с)
 
Видим.   Явления Облачность Т
(С)
Тd
(С)
f
(%)
Тe
(С)
Тes
(С)
Комфортность P
(гПа)
Po
(гПа)
Тmin
(С)
Tmax
(С)
R
(мм)
R24
(мм)
S
(см)
18 12.06 С 1 10 км {ливн. осадки} 8/3 600 м
[Sc Ci fib]
+5.8 +1.1 72 +5 +5 1026.4 1017.6
21 12.06 СЗ 1 10 км 8/3 600 м
[Sc Ci fib]
+3.4 +0.5 81 +2 +2 1026.9 1018.1
00 13.06 З 1 10 км ясно -0.5 -1.1 96 -3 -3 1027.7 1018.7
03 13.06 СЗ 1 10 км 8/3 600 м
[Sc Ci fib]
+5.2 +1.1 75 +4 +6 1027.4 1018.6 -0.6
06 13.06 СЗ 2 20 км 10/0
[Ci]
+10.5 +1.8 55 +9 +16 1026.8 1018.2
09 13.06 СЗ 3
{11}
20 км 10/6 600 м
[Sc Ci]
+13.4 +2.5 48 +12 +16 1026.2 1017.7
12 13.06 СЗ 3 20 км 10/9 600 м
[Sc Ci]
+13.4 +1.8 45 +13 +13 1025.3 1016.8
15 13.06 СЗ 2 20 км 10/4 600 м
[Sc Ci]
+12.8 +2.8 51 +12 +14 1024.2 1015.7 +14.5
18 13.06 СЗ 1 20 км 10/0
[Ci]
+10.4 +2.6 58 +10 +11 1022.8 1014.2
21 13.06 штиль 0 20 км 9/0
[Ac lent Ci]
+4.1 +2.9 92 +3 +3 1022.1 1013.3
00 14.06 штиль 0 20 км 3/0
[Ac lent]
+1.1 +0.5 96 -0 -0 1021.3 1012.4
03 14.06 штиль 0 20 км 9/0
[Ac As]
+9.0 +3.6 69 +8 +10 1019.4 1010.8 +0.9
06 14.06 З 1 20 км 10/3 600 м
[Sc Ac cast Ci fib]
+11.7 +3.1 56 +12 +15 1018.0 1009.5
09 14.06 С 1 20 км 10/10 600 м
[Sc]
+14.5 +4.0 49 +15 +15 1016.1 1007.8
12 14.06 З 4 10 км 10/0
[Ac und]
+14.0 +1.0 41 +13 +15 1015.1 1006.7
15 14.06 СЗ 1 10 км слаб. ливневой дождь 10/10 600 м
[Cb cap]
+10.2 +6.4 77 +10 +10 1013.9 1005.4 +14.8 0.4
18 14.06 С 1 10 км {ливн. осадки} 10/10 300 м
[St]
+7.7 +6.7 93 +7 +7 1013.2 1004.6
21 14.06 С 1 10 км 10/10 600 м
[Sc]
+4.7 +3.3 91 +3 +3 1013.7 1005.0
00 15.06 штиль 0 10 км 10/0
[Ac und]
+4.0 +3.0 93 +3 +3 1012.9 1004.2
03 15.06 СЗ 1 10 км слаб. ливневой дождь 10/10 300 м
[Cb cap]
+5.2 +3.3 88 +4 +4 1013.2 1004.6 +3.9 0.8
06 15.06 СЗ 2 10 км {ливн. осадки} 10/10 300 м
[St]
+6.6 +2.8 77 +4 +4 1013.6 1005.0
09 15.06 С 2 20 км 10/10 300 м
[St]
+8.6 +1.9 63 +7 +7 1013.7 1005.1
12 15.06 С 2 20 км 9/9 600 м
[Sc]
+10.9 +1.5 52 +10 +11 1014.0 1005.5
15 15.06 С 1 20 км 9/9 600 м
[Sc]
+10.2 +1.4 54 +10 +11 1013.6 1005.1 +11.9 0.0
18 15.06 З 1 20 км 8/0
[Ac trans Cc]
+8.2 +3.2 71 +8 +8 1012.8 1004.3
21 15.06 штиль 0 20 км 10/10 1000 м
[Sc]
+4.3 +2.7 89 +3 +3 1011.4 1002.7
00 16.06 Ю 1 10 км 10/10 600 м
[Sc]
+6.1 +3.3 82 +5 +5 1009.2 1000.6
03 16.06 З 3 20 км 9/0
[Ac trans]
+10.6 +4.5 66 +9 +10 1006.0 997.6 +4.0
06 16.06 З 3 20 км ясно +16.0 +4.5 46 +16 +23 1004.1 995.8
09 16.06 С 2 20 км 4/4 600 м
[Cu hum]
+15.7 +5.9 52 +16 +23 1005.5 997.2
12 16.06 С 2 20 км 10/10 600 м
[Sc]
+11.0 +2.9 57 +10 +10 1008.0 999.6
15 16.06 СЗ 2 20 км 10/10 600 м
[Sc]
+10.9 +1.7 53 +10 +10 1008.4 1000.0 +17.1
18 16.06 С 1 20 км 10/0
[Ac und]
+8.9 +1.5 60 +9 +9 1009.4 1000.9
21 16.06 З 1 20 км 10/0
[Ac und]
+6.6 +2.3 74 +6 +6 1008.7 1000.2
00 17.06 штиль 0 10 км слаб. ливневой дождь 10/10 600 м
[Cb cap]
+5.9 +2.9 81 +5 +5 1008.6 1000.0
03 17.06 СЗ 1 10 км {ливн. осадки} 10/10 600 м
[Sc]
+8.4 +4.0 74 +8 +8 1008.6 1000.1 +5.2 0.0
06 17.06 СЗ 2 20 км {ливн. осадки} 10/4 600 м
[Sc Ci]
+11.9 +2.0 51 +11 +15 1008.4 1000.0
09 17.06 СЗ 3 20 км 3/3 600 м
[Cu hum]
+13.8 +0.6 40 +13 +20 1008.4 1000.0
12 17.06 З 3 20 км ясно +15.3 +0.3 36 +15 +23 1007.9 999.6
15 17.06 СЗ 2 20 км ясно +16.1 +0.1 34 +16 +20 1007.3 999.0 +16.5
18 17.06 штиль 0 20 км 4/0
[Ci sp]
+13.0 +4.3 55 +13 +13 1006.8 998.4
21 17.06 штиль 0 20 км 1/0
[Ci sp]
+4.8 +3.1 89 +4 +4 1007.4 998.8
00 18.06 штиль 0 20 км ясно +2.0 +1.4 96 +1 +1 1008.1 999.4
03 18.06 СВ 1 20 км 1/0
[Ci fib]
+7.3 +1.4 66 +7 +10 1008.0 999.5 +1.6
06 18.06 СВ 1 20 км ясно +12.0 +2.2 51 +12 +22 1007.6 999.2
09 18.06 СЗ 2 20 км 1/0
[Ci fib]
+14.6 +3.2 46 +14 +26 опасность
простуды
1007.7 999.4
12 18.06 С 2 20 км ясно +15.0 +2.3 42 +15 +24 1008.2 999.9
15 18.06 СВ 1 20 км 1/0
[Ci fib]
+13.9 +1.2 42 +15 +18 1008.9 1000.5 +15.7
18 18.06 СВ 1 20 км ясно +10.2 +1.7 56 +10 +10 1009.7 1001.2
21 18.06 штиль 0 20 км ясно +2.3 +0.3 87 +1 +1 1010.8 1002.1
00 19.06 штиль 0 20 км 1/0
[Ci fib]
-1.3 -1.8 96 -3 -2 1011.0 1002.2
03 19.06 Ю 1 20 км 6/0
[Ci sp]
+7.9 +0.4 59 +8 +10 1010.4 1001.8 -1.4
06 19.06 Ю 2 20 км 10/0
[Ac As Cs]
+11.4 +1.8 52 +11 +16 1008.7 1000.2
09 19.06 ЮВ 2 10 км в посл. час ливневой дождь 9/8 600 м
[Sc Ac As]
+12.8 +4.0 55 +12 +14 1007.2 998.9
12 19.06 ЮЗ 2 20 км {ливн. осадки} 10/8 600 м
[Sc Ac As]
+16.5 +6.9 53 +17 +17 1005.4 997.1

 

Местоположение метеостанции Кепино (Архангельская область, Россия): широта 65.38 долгота 41.83 высота над уровнем моря 69 м.

В архиве по умолчанию представлена погода в Кепино за последнюю неделю. Архивные данные за месяц целиком и за предыдущие месяцы, начиная с января 2011 года, Вы можете получить, выбрав интересующий диапазон дат из раскрывающегося списка и нажав кнопку "Ввод!".


*Определитесь, кто Вы:
робот инопланетянин человек

Внимание! Время в таблицах - всемирное. Для получения местного времени необходимо прибавить поправку, которая равна 3 ч.

Смотрите также архив погоды в соседних городах и на ближайших метеорологических станциях:

Погода на Мудьюг Острове (Архангельская область, Россия) (93 км)
Погода в Зимнегорском Маяке (Архангельская область, Россия) (98 км)
Погода в Пинеге (Архангельская область, Россия) (104 км)
Погода в Архангельске (Архангельская область, Россия) (111 км)
Погода в Мезене (Архангельская область, Россия) (122 км)
Погода в Абрамовском маяке (Архангельская область, Россия) (129 км)
Погода в Холмогорах (Архангельская область, Россия) (129 км)
Погода в Северодвинске (Архангельская область, Россия) (131 км)
Погода на Сосновец Острове (Мурманская область, Россия) (133 км)
Погода в Пялице (Мурманская область, Россия) (138 км)

Пояснения к столбцам:

Ветер - указаны скорость ветра в м/с - средняя за 10 мин, порывы в срок и между сроками (в фигурных скобках) и направление, откуда дует ветер: С - северный, СВ - северо-восточный, В - восточный, ЮВ - юго-восточный, Ю - южный, ЮЗ - юго-западный, З - западный, СЗ - северо-западный.
Видимость - горизонтальная дальность видимости в метрах или километрах. При видимости от 1 до 10 км при отсутствии осадков обычно наблюдается дымка, при ухудшении видимости до 1 км и менее - туман. В сухую погоду видимость может ухудшаться дымом, пылью или мглою.
Явления - указаны атмосферные явления, наблюдавшиеся в срок или в последний час перед сроком; фигурными скобками обозначены явления, наблюдавшиеся между сроками (за 1-3 часа до срока); квадратными скобками обозначены град или гололедные отложения с указанием их диаметра в мм.
Облачность - указаны через наклонную черту общая и нижняя облачность в баллах и высота нижней границы облаков в метрах; квадратными скобками обозначены формы облаков: Ci - перистые, Cs - перисто-слоистые, Cc - перисто-кучевые, Ac - высококучевые, As - высокослоистые, Sc - слоисто-кучевые, Ns - слоисто-дождевые, Cu - кучевые, Cb - кучево-дождевые. Подробнее классификацию облаков см. в Атласе облаков (PDF).
T - Температура воздуха - температура, измеренная на высоте 2 м над землей.
Td - Температура точки росы - температура, при понижении до которой содержащийся в воздухе водяной пар достигнет насыщения.
f - Относительная влажность воздуха - влажноcть воздуха, измеренная на высоте 2 м над землей.
Te - Эффективная температура - температура, которую ощущает одетый по сезону человек в тени. Характеристика душности погоды. При расчете учитывается влияние влажности воздуха и скорости ветра на теплоощущения человека.
Tes - Эффективная температура на солнце - температура, которую ощущает человек, с поправкой на солнечный нагрев. Характеристика знойности погоды. Зависит от высоты солнца над горизонтом, облачности и скорости ветра. Ночью, в пасмурную погоду, а также при ветре 12 м/с и более поправка равна нулю.
P - Атмосферное давление - приведенное к уровню моря атмосферное давление.
Po - Атмосферное давление - измеренное на уровне метеостанции атмосферное давление.
Tmin - Минимальная температура - минимум температуры воздуха на высоте 2 м над землей.
Tmax - Максимальная температура - максимум температуры воздуха на высоте 2 м над землей.
R - Количество осадков - Количество выпавших осадков за период времени, мм. При наведении курсора мыши на число - период времени, за который выпало указанное количество осадков.
R24 - Количество осадков - Количество выпавших осадков за 24 часа, мм.
S - Снежный покров - Высота снежного покрова, см. При наведении курсора мыши на число - состояние снежного покрова и степень покрытия местности в баллах.